OAL638 LICJ-LFBD

Flight info

Callsign OAL638
Flight time 1h 53m
Altitude 34000
Route GIANO DCT QUENN DCT GOPAT L978 OBOBO Z154 LOKDU DCT PADKO UY342 BULTO Y341 SALIN Y25 FJR DCT SECHE DCT MIRBA
Aircraft B77L/H-VGDW/C

Departure

Time 2026-05-06 11:56
Airport Falcone–Borsellino Airport (LICJ)

Arrival

Time 2026-05-06 13:50
Airport Bordeaux–Mérignac Airport (LFBD)
Time Latitude Longitude Altitude Speed Heading
2026-05-06 11:32 38.18595 13.10871 69 ft 0 kts 247°
2026-05-06 11:46 38.18596 13.10875 69 ft 0 kts 238°
2026-05-06 11:46 38.18596 13.10877 69 ft 0 kts 237°
2026-05-06 11:50 38.18569 13.10860 63 ft 12 kts 186°
2026-05-06 11:50 38.18497 13.10910 63 ft 12 kts 149°
2026-05-06 11:50 38.18419 13.10926 60 ft 12 kts 207°
2026-05-06 11:51 38.18372 13.10838 62 ft 13 kts 245°
2026-05-06 11:51 38.18316 13.10673 60 ft 27 kts 247°
2026-05-06 11:51 38.18244 13.10455 60 ft 27 kts 247°
2026-05-06 11:51 38.18172 13.10240 62 ft 27 kts 247°
2026-05-06 11:52 38.18096 13.10025 61 ft 27 kts 246°
2026-05-06 11:52 38.18023 13.09808 62 ft 27 kts 247°
2026-05-06 11:52 38.17950 13.09592 62 ft 27 kts 246°
2026-05-06 11:52 38.17877 13.09375 67 ft 27 kts 247°
2026-05-06 11:53 38.17805 13.09161 66 ft 25 kts 247°
2026-05-06 11:53 38.17737 13.08969 63 ft 22 kts 236°
2026-05-06 11:53 38.17662 13.08883 64 ft 1 kts 217°
2026-05-06 11:53 38.17659 13.08880 64 ft 1 kts 217°
2026-05-06 11:54 38.17658 13.08879 64 ft 0 kts 217°
2026-05-06 11:54 38.17610 13.08834 63 ft 17 kts 217°
2026-05-06 11:55 38.17514 13.08773 64 ft 14 kts 167°
2026-05-06 11:55 38.17498 13.08848 69 ft 9 kts 66°
2026-05-06 11:55 38.17515 13.08892 65 ft 0 kts 63°
2026-05-06 11:55 38.17520 13.08904 66 ft 8 kts 65°
2026-05-06 11:56 38.17585 13.09103 68 ft 54 kts 67°
2026-05-06 11:56 38.17869 13.09940 65 ft 151 kts 66°
2026-05-06 11:56 38.18369 13.11472 371 ft 206 kts 68°
2026-05-06 11:56 38.18866 13.13188 1594 ft 204 kts 70°
2026-05-06 11:57 38.19437 13.14860 2430 ft 216 kts 69°
2026-05-06 11:57 38.20104 13.16720 2689 ft 245 kts 68°
2026-05-06 11:57 38.20904 13.18686 3251 ft 257 kts 56°
2026-05-06 11:57 38.22252 13.20265 3887 ft 271 kts 35°
2026-05-06 11:58 38.23948 13.21389 4615 ft 280 kts 24°
2026-05-06 11:58 38.25770 13.22324 5500 ft 284 kts 22°
2026-05-06 11:58 38.27617 13.23245 6391 ft 287 kts 22°
2026-05-06 11:58 38.29482 13.24187 7214 ft 291 kts 22°
2026-05-06 11:59 38.31350 13.25150 8023 ft 295 kts 22°
2026-05-06 11:59 38.33262 13.26153 8847 ft 299 kts 22°
2026-05-06 11:59 38.35195 13.27178 9676 ft 303 kts 21°
2026-05-06 11:59 38.37155 13.28221 10392 ft 310 kts 21°
2026-05-06 12:00 38.39236 13.29112 10626 ft 325 kts
2026-05-06 12:00 38.41513 13.28804 10805 ft 341 kts 335°
2026-05-06 12:00 38.43494 13.27071 11017 ft 356 kts 308°
2026-05-06 12:00 38.44882 13.24419 11237 ft 366 kts 298°
2026-05-06 12:01 38.46259 13.21616 11804 ft 377 kts 300°
2026-05-06 12:01 38.47732 13.18830 12701 ft 380 kts 301°
2026-05-06 12:01 38.49233 13.16039 13663 ft 381 kts 301°
2026-05-06 12:01 38.50736 13.13235 14459 ft 385 kts 301°
2026-05-06 12:02 38.52253 13.10393 15185 ft 390 kts 301°
2026-05-06 12:02 38.53791 13.07509 15919 ft 395 kts 301°
2026-05-06 12:02 38.55342 13.04598 16652 ft 398 kts 301°
2026-05-06 12:02 38.56910 13.01651 17387 ft 402 kts 300°
2026-05-06 12:03 38.58493 12.98674 18108 ft 407 kts 300°
2026-05-06 12:03 38.60092 12.95664 18733 ft 411 kts 300°
2026-05-06 12:03 38.61706 12.92624 19360 ft 415 kts 300°
2026-05-06 12:03 38.63310 12.89600 19977 ft 418 kts 300°
2026-05-06 12:04 38.64968 12.86471 20589 ft 422 kts 300°
2026-05-06 12:04 38.66604 12.83382 21182 ft 426 kts 300°
2026-05-06 12:04 38.68268 12.80238 21800 ft 429 kts 300°
2026-05-06 12:04 38.69943 12.77067 22416 ft 432 kts 300°
2026-05-06 12:05 38.71633 12.73867 23041 ft 435 kts 300°
2026-05-06 12:05 38.73331 12.70647 23645 ft 437 kts 300°
2026-05-06 12:05 38.75036 12.67411 24184 ft 439 kts 300°
2026-05-06 12:05 38.76748 12.64159 24735 ft 441 kts 300°
2026-05-06 12:06 38.78461 12.60901 25294 ft 442 kts 300°
2026-05-06 12:06 38.80183 12.57624 25810 ft 444 kts 300°
2026-05-06 12:06 38.81907 12.54336 26326 ft 446 kts 300°
2026-05-06 12:06 38.83652 12.51008 26800 ft 449 kts 300°
2026-05-06 12:07 38.85388 12.47692 27274 ft 452 kts 300°
2026-05-06 12:07 38.87160 12.44335 27727 ft 455 kts 301°
2026-05-06 12:07 38.89133 12.41114 28157 ft 461 kts 306°
2026-05-06 12:07 38.91283 12.38027 28593 ft 465 kts 308°
2026-05-06 12:08 38.93470 12.35032 29006 ft 468 kts 308°
2026-05-06 12:08 38.95734 12.31949 29418 ft 470 kts 308°
2026-05-06 12:08 38.97967 12.28876 29856 ft 471 kts 308°
2026-05-06 12:08 39.00192 12.25768 30353 ft 469 kts 307°
2026-05-06 12:09 39.02352 12.22713 30894 ft 465 kts 307°
2026-05-06 12:09 39.04512 12.19630 31409 ft 462 kts 306°
2026-05-06 12:09 39.06650 12.16559 31875 ft 461 kts 306°
2026-05-06 12:09 39.08783 12.13487 32281 ft 460 kts 306°
2026-05-06 12:10 39.10915 12.10410 32664 ft 459 kts 306°
2026-05-06 12:10 39.13041 12.07339 33071 ft 459 kts 306°
2026-05-06 12:10 39.15158 12.04280 33480 ft 457 kts 305°
2026-05-06 12:10 39.17279 12.01215 33873 ft 456 kts 305°
2026-05-06 12:11 39.21531 11.95057 34019 ft 461 kts 305°
2026-05-06 12:11 39.25771 11.88916 34021 ft 456 kts 305°
2026-05-06 12:12 39.29990 11.82791 34002 ft 456 kts 304°
2026-05-06 12:12 39.34204 11.76657 34008 ft 456 kts 304°
2026-05-06 12:13 39.38415 11.70515 34007 ft 457 kts 304°
2026-05-06 12:13 39.42636 11.64348 34018 ft 458 kts 304°
2026-05-06 12:14 39.46838 11.58197 34018 ft 460 kts 304°
2026-05-06 12:14 39.51075 11.51982 34014 ft 461 kts 304°
2026-05-06 12:15 39.55318 11.45747 34011 ft 462 kts 304°
2026-05-06 12:15 39.59565 11.39494 34008 ft 462 kts 304°
2026-05-06 12:16 39.63811 11.33228 34010 ft 463 kts 304°
2026-05-06 12:16 39.68063 11.26941 34010 ft 463 kts 303°
2026-05-06 12:17 39.72304 11.20660 34000 ft 463 kts 303°
2026-05-06 12:17 39.76520 11.14402 34003 ft 461 kts 303°
2026-05-06 12:18 39.80740 11.08125 33997 ft 460 kts 303°
2026-05-06 12:18 39.84943 11.01860 33996 ft 459 kts 303°
2026-05-06 12:19 39.89135 10.95598 33996 ft 458 kts 303°
2026-05-06 12:19 39.93315 10.89340 33997 ft 457 kts 302°
2026-05-06 12:20 39.97483 10.83091 33995 ft 456 kts 302°
2026-05-06 12:20 40.00935 10.77903 33996 ft 455 kts 302°
2026-05-06 12:21 40.05080 10.71664 33989 ft 454 kts 302°
2026-05-06 12:21 40.09212 10.65430 33993 ft 453 kts 302°
2026-05-06 12:22 40.13331 10.59203 33986 ft 452 kts 302°
2026-05-06 12:22 40.17383 10.52945 33980 ft 447 kts 298°
2026-05-06 12:23 40.21108 10.46458 33982 ft 445 kts 298°
2026-05-06 12:23 40.24809 10.39955 33978 ft 445 kts 298°
2026-05-06 12:24 40.28518 10.33446 33974 ft 446 kts 298°
2026-05-06 12:24 40.32202 10.26986 33975 ft 446 kts 298°
2026-05-06 12:25 40.35924 10.20452 33975 ft 447 kts 298°
2026-05-06 12:25 40.39650 10.13897 33970 ft 448 kts 298°
2026-05-06 12:26 40.43379 10.07324 33965 ft 449 kts 297°
2026-05-06 12:26 40.47103 10.00743 33972 ft 450 kts 297°
2026-05-06 12:27 40.50831 9.94143 33965 ft 450 kts 297°
2026-05-06 12:27 40.54564 9.87520 33990 ft 451 kts 297°
2026-05-06 12:28 40.58296 9.80883 33965 ft 451 kts 297°
2026-05-06 12:28 40.62028 9.74234 33978 ft 452 kts 297°
2026-05-06 12:29 40.65734 9.67615 33965 ft 452 kts 297°
2026-05-06 12:29 40.69459 9.60951 33952 ft 452 kts 297°
2026-05-06 12:30 40.73185 9.54265 33957 ft 452 kts 297°
2026-05-06 12:30 40.76918 9.47560 33947 ft 452 kts 297°
2026-05-06 12:31 40.80632 9.40870 33956 ft 453 kts 297°
2026-05-06 12:31 40.84354 9.34149 33947 ft 454 kts 297°
2026-05-06 12:32 40.88077 9.27413 33950 ft 455 kts 297°
2026-05-06 12:32 40.91810 9.20643 33960 ft 457 kts 297°
2026-05-06 12:33 40.95538 9.13868 33965 ft 459 kts 297°
2026-05-06 12:33 40.99329 9.06963 33975 ft 462 kts 297°
2026-05-06 12:34 41.03076 9.00123 33978 ft 463 kts 298°
2026-05-06 12:34 41.06869 8.93189 33972 ft 466 kts 298°
2026-05-06 12:35 41.10671 8.86218 33982 ft 467 kts 298°
2026-05-06 12:35 41.14480 8.79220 33968 ft 468 kts 298°
2026-05-06 12:36 41.18294 8.72197 33969 ft 469 kts 299°
2026-05-06 12:36 41.22110 8.65152 33968 ft 469 kts 299°
2026-05-06 12:37 41.25919 8.58105 33966 ft 470 kts 299°
2026-05-06 12:37 41.29725 8.51051 33961 ft 469 kts 300°
2026-05-06 12:38 41.31871 8.47786 33948 ft 476 kts 314°
2026-05-06 12:38 41.34732 8.45448 33967 ft 491 kts 333°
2026-05-06 12:38 41.38060 8.44226 33957 ft 504 kts 349°
2026-05-06 12:38 41.41533 8.44155 33969 ft 506 kts 358°
2026-05-06 12:39 41.48597 8.44397 33970 ft 509 kts 356°
2026-05-06 12:39 41.55713 8.44408 33967 ft 513 kts 355°
2026-05-06 12:40 41.62869 8.44396 33963 ft 516 kts 355°
2026-05-06 12:40 41.70055 8.44421 33963 ft 517 kts 356°
2026-05-06 12:41 41.77259 8.44456 33957 ft 515 kts 354°
2026-05-06 12:41 41.80762 8.43958 33947 ft 500 kts 339°
2026-05-06 12:41 41.83890 8.42167 33963 ft 483 kts 320°
2026-05-06 12:42 41.86447 8.39351 33973 ft 472 kts 307°
2026-05-06 12:42 41.88556 8.36013 33967 ft 467 kts 298°
2026-05-06 12:42 41.90161 8.32278 33949 ft 456 kts 286°
2026-05-06 12:42 41.91214 8.28295 33964 ft 453 kts 282°
2026-05-06 12:43 41.93327 8.20293 33964 ft 455 kts 284°
2026-05-06 12:43 41.95570 8.12340 33959 ft 455 kts 284°
2026-05-06 12:44 41.97878 8.04430 33951 ft 457 kts 288°
2026-05-06 12:44 42.01054 7.97031 33963 ft 463 kts 297°
2026-05-06 12:45 42.04594 7.89843 33956 ft 460 kts 296°
2026-05-06 12:46 42.09815 7.79042 33945 ft 458 kts 296°
2026-05-06 12:46 42.13267 7.71849 33952 ft 457 kts 295°
2026-05-06 12:47 42.16709 7.64656 33954 ft 457 kts 295°
2026-05-06 12:47 42.20149 7.57454 33954 ft 457 kts 295°
2026-05-06 12:48 42.23599 7.50215 33956 ft 458 kts 295°
2026-05-06 12:48 42.27047 7.42964 33949 ft 460 kts 295°
2026-05-06 12:49 42.30501 7.35684 33946 ft 461 kts 295°
2026-05-06 12:49 42.33934 7.28431 33949 ft 461 kts 295°
2026-05-06 12:50 42.37389 7.21113 33950 ft 462 kts 295°
2026-05-06 12:50 42.40844 7.13777 33950 ft 462 kts 295°
2026-05-06 12:51 42.44296 7.06430 33948 ft 462 kts 295°
2026-05-06 12:51 42.47736 6.99091 33950 ft 461 kts 294°
2026-05-06 12:52 42.51163 6.91763 33945 ft 460 kts 294°
2026-05-06 12:52 42.54554 6.84492 33929 ft 458 kts 294°
2026-05-06 12:53 42.57946 6.77201 33934 ft 456 kts 294°
2026-05-06 12:53 42.61328 6.69912 33940 ft 455 kts 294°
2026-05-06 12:54 42.64695 6.62639 33936 ft 455 kts 294°
2026-05-06 12:54 42.68056 6.55358 33935 ft 455 kts 294°
2026-05-06 12:55 42.71412 6.48072 33935 ft 455 kts 294°
2026-05-06 12:55 42.74774 6.40755 33934 ft 456 kts 294°
2026-05-06 12:56 42.78129 6.33435 33929 ft 456 kts 293°
2026-05-06 12:56 42.81484 6.26097 33929 ft 457 kts 293°
2026-05-06 12:57 42.84838 6.18744 33924 ft 457 kts 293°
2026-05-06 12:57 42.88170 6.11423 33925 ft 457 kts 293°
2026-05-06 12:58 42.91523 6.04033 33924 ft 458 kts 293°
2026-05-06 12:58 42.94868 5.96645 33922 ft 458 kts 293°
2026-05-06 12:59 42.98214 5.89235 33930 ft 458 kts 293°
2026-05-06 12:59 43.01551 5.81827 33937 ft 458 kts 293°
2026-05-06 13:00 43.04887 5.74403 33941 ft 458 kts 293°
2026-05-06 13:00 43.08218 5.66970 33931 ft 458 kts 293°
2026-05-06 13:01 43.11546 5.59526 33936 ft 458 kts 293°
2026-05-06 13:01 43.14840 5.52139 33943 ft 457 kts 293°
2026-05-06 13:02 43.18150 5.44697 33946 ft 457 kts 294°
2026-05-06 13:02 43.21381 5.37215 33939 ft 452 kts 289°
2026-05-06 13:03 43.23477 5.29247 33944 ft 441 kts 277°
2026-05-06 13:03 43.24449 5.21048 33950 ft 434 kts 271°
2026-05-06 13:04 43.25219 5.12823 33939 ft 435 kts 271°
2026-05-06 13:04 43.26018 5.04590 33941 ft 435 kts 272°
2026-05-06 13:05 43.26819 4.96345 33938 ft 436 kts 272°
2026-05-06 13:05 43.27546 4.88095 33931 ft 434 kts 269°
2026-05-06 13:06 43.27955 4.79837 33918 ft 434 kts 270°
2026-05-06 13:06 43.29300 4.71660 33938 ft 445 kts 283°
2026-05-06 13:07 43.31854 4.63848 33934 ft 454 kts 292°
2026-05-06 13:07 43.34954 4.56301 33932 ft 454 kts 292°
2026-05-06 13:08 43.37991 4.48697 33924 ft 453 kts 292°
2026-05-06 13:08 43.40962 4.41129 33919 ft 452 kts 291°
2026-05-06 13:09 43.43922 4.33491 33917 ft 452 kts 291°
2026-05-06 13:09 43.46879 4.25852 33915 ft 452 kts 291°
2026-05-06 13:10 43.49839 4.18194 33919 ft 453 kts 291°
2026-05-06 13:10 43.52793 4.10533 33916 ft 453 kts 291°
2026-05-06 13:11 43.55742 4.02868 33921 ft 453 kts 292°
2026-05-06 13:11 43.58517 3.95098 33914 ft 448 kts 285°
2026-05-06 13:12 43.60618 3.87038 33923 ft 447 kts 284°
2026-05-06 13:12 43.62379 3.80343 33917 ft 447 kts 284°
2026-05-06 13:13 43.64514 3.72283 33914 ft 447 kts 285°
2026-05-06 13:13 43.66994 3.62909 33918 ft 447 kts 285°
2026-05-06 13:14 43.68775 3.56150 33914 ft 447 kts 285°
2026-05-06 13:14 43.70900 3.48064 33924 ft 448 kts 285°
2026-05-06 13:15 43.73019 3.39974 33915 ft 448 kts 285°
2026-05-06 13:15 43.75121 3.31914 33918 ft 449 kts 285°
2026-05-06 13:16 43.77232 3.23794 33912 ft 449 kts 285°
2026-05-06 13:16 43.79341 3.15654 33926 ft 450 kts 285°
2026-05-06 13:17 43.81450 3.07490 33933 ft 450 kts 285°
2026-05-06 13:17 43.83552 2.99319 33933 ft 451 kts 285°
2026-05-06 13:18 43.85652 2.91135 33953 ft 451 kts 285°
2026-05-06 13:18 43.87746 2.82939 33952 ft 451 kts 285°
2026-05-06 13:19 43.89838 2.74724 33961 ft 451 kts 285°
2026-05-06 13:19 43.91921 2.66514 33959 ft 451 kts 285°
2026-05-06 13:20 43.94000 2.58298 33968 ft 451 kts 285°
2026-05-06 13:20 43.96072 2.50071 33981 ft 452 kts 285°
2026-05-06 13:21 43.98147 2.41803 33960 ft 454 kts 285°
2026-05-06 13:21 44.00220 2.33518 33962 ft 454 kts 285°
2026-05-06 13:22 44.02287 2.25231 33965 ft 454 kts 285°
2026-05-06 13:22 44.04337 2.16977 33965 ft 455 kts 286°
2026-05-06 13:23 44.06411 2.08597 33959 ft 456 kts 286°
2026-05-06 13:23 44.08458 2.00297 33961 ft 457 kts 286°
2026-05-06 13:24 44.10531 1.91856 33957 ft 459 kts 286°
2026-05-06 13:24 44.12593 1.83435 33952 ft 460 kts 286°
2026-05-06 13:25 44.14650 1.75004 33945 ft 461 kts 286°
2026-05-06 13:25 44.16693 1.66592 33951 ft 462 kts 286°
2026-05-06 13:26 44.18748 1.58102 33953 ft 463 kts 286°
2026-05-06 13:26 44.20816 1.49521 33046 ft 476 kts 286°
2026-05-06 13:26 44.21867 1.45151 32340 ft 473 kts 287°
2026-05-06 13:27 44.22895 1.40873 31787 ft 460 kts 287°
2026-05-06 13:27 44.23904 1.36669 31227 ft 455 kts 287°
2026-05-06 13:27 44.24900 1.32507 30691 ft 450 kts 287°
2026-05-06 13:27 44.25882 1.28389 30177 ft 445 kts 287°
2026-05-06 13:28 44.26857 1.24298 29580 ft 441 kts 287°
2026-05-06 13:28 44.27816 1.20263 29010 ft 436 kts 287°
2026-05-06 13:28 44.28765 1.16266 28473 ft 430 kts 287°
2026-05-06 13:28 44.29700 1.12318 27957 ft 425 kts 287°
2026-05-06 13:29 44.30620 1.08427 27438 ft 420 kts 287°
2026-05-06 13:29 44.31533 1.04563 26916 ft 416 kts 287°
2026-05-06 13:29 44.32433 1.00743 26408 ft 412 kts 287°
2026-05-06 13:29 44.33325 0.96953 25906 ft 409 kts 287°
2026-05-06 13:30 44.34207 0.93198 25413 ft 405 kts 287°
2026-05-06 13:30 44.35078 0.89479 24936 ft 402 kts 287°
2026-05-06 13:30 44.35943 0.85785 24455 ft 399 kts 287°
2026-05-06 13:30 44.36798 0.82129 23987 ft 396 kts 287°
2026-05-06 13:31 44.37653 0.78462 23527 ft 394 kts 287°
2026-05-06 13:31 44.38502 0.74821 22975 ft 393 kts 287°
2026-05-06 13:31 44.39343 0.71200 22457 ft 392 kts 287°
2026-05-06 13:31 44.40171 0.67633 21994 ft 388 kts 288°
2026-05-06 13:32 44.40999 0.64065 21520 ft 384 kts 288°
2026-05-06 13:32 44.41819 0.60526 21070 ft 380 kts 288°
2026-05-06 13:32 44.42629 0.57019 20614 ft 377 kts 288°
2026-05-06 13:32 44.43617 0.53695 20143 ft 367 kts 302°
2026-05-06 13:33 44.45283 0.51010 19725 ft 365 kts 319°
2026-05-06 13:33 44.47387 0.49055 19290 ft 363 kts 332°
2026-05-06 13:33 44.49676 0.47574 18858 ft 362 kts 334°
2026-05-06 13:33 44.51972 0.46111 18394 ft 363 kts 334°
2026-05-06 13:34 44.54278 0.44628 17919 ft 365 kts 334°
2026-05-06 13:34 44.56576 0.43138 17434 ft 365 kts 334°
2026-05-06 13:34 44.58884 0.41632 16963 ft 364 kts 334°
2026-05-06 13:34 44.61164 0.40134 16502 ft 361 kts 334°
2026-05-06 13:35 44.63426 0.38642 16053 ft 358 kts 334°
2026-05-06 13:35 44.65673 0.37157 15619 ft 356 kts 334°
2026-05-06 13:35 44.67909 0.35678 15163 ft 354 kts 334°
2026-05-06 13:35 44.70126 0.34210 14732 ft 352 kts 334°
2026-05-06 13:36 44.72339 0.32743 14290 ft 350 kts 334°
2026-05-06 13:36 44.74500 0.31267 13852 ft 348 kts 333°
2026-05-06 13:36 44.76653 0.29757 13372 ft 345 kts 333°
2026-05-06 13:36 44.78796 0.28248 12914 ft 342 kts 333°
2026-05-06 13:37 44.80916 0.26756 12473 ft 339 kts 333°
2026-05-06 13:37 44.83019 0.25279 12059 ft 336 kts 333°
2026-05-06 13:37 44.85101 0.23818 11647 ft 333 kts 333°
2026-05-06 13:37 44.87173 0.22364 11212 ft 331 kts 333°
2026-05-06 13:38 44.89219 0.20928 10804 ft 327 kts 332°
2026-05-06 13:38 44.91061 0.19228 10629 ft 306 kts 314°
2026-05-06 13:38 44.92159 0.16768 10492 ft 292 kts 289°
2026-05-06 13:38 44.92601 0.14036 10386 ft 281 kts 277°
2026-05-06 13:39 44.92580 0.11339 10276 ft 270 kts 264°
2026-05-06 13:39 44.92304 0.08787 10139 ft 256 kts 262°
2026-05-06 13:39 44.91994 0.06354 10054 ft 253 kts 262°
2026-05-06 13:39 44.91670 0.03782 10006 ft 279 kts 262°
2026-05-06 13:40 44.91329 0.01014 9739 ft 291 kts 262°
2026-05-06 13:40 44.90991 -0.01778 9548 ft 288 kts 262°
2026-05-06 13:40 44.90660 -0.04534 9317 ft 281 kts 262°
2026-05-06 13:40 44.90347 -0.07180 8984 ft 276 kts 262°
2026-05-06 13:41 44.90032 -0.09892 8411 ft 281 kts 262°
2026-05-06 13:41 44.89716 -0.12586 8129 ft 275 kts 262°
2026-05-06 13:41 44.89409 -0.15206 7817 ft 270 kts 262°
2026-05-06 13:41 44.89102 -0.17820 7411 ft 269 kts 262°
2026-05-06 13:42 44.88905 -0.20402 7066 ft 261 kts 272°
2026-05-06 13:42 44.88997 -0.22946 6765 ft 258 kts 275°
2026-05-06 13:42 44.89123 -0.25452 6465 ft 256 kts 275°
2026-05-06 13:42 44.89226 -0.27944 6152 ft 254 kts 274°
2026-05-06 13:43 44.89313 -0.30433 5833 ft 253 kts 274°
2026-05-06 13:43 44.89393 -0.32891 5545 ft 250 kts 274°
2026-05-06 13:43 44.89582 -0.35290 5272 ft 240 kts 290°
2026-05-06 13:43 44.90474 -0.37189 5020 ft 231 kts 316°
2026-05-06 13:44 44.91647 -0.38732 4785 ft 236 kts 314°
2026-05-06 13:44 44.92839 -0.40430 4482 ft 248 kts 314°
2026-05-06 13:44 44.94060 -0.42153 4195 ft 249 kts 315°
2026-05-06 13:44 44.95274 -0.43845 4031 ft 238 kts 315°
2026-05-06 13:45 44.96424 -0.45440 3897 ft 226 kts 315°
2026-05-06 13:45 44.97399 -0.49130 3483 ft 204 kts 254°
2026-05-06 13:45 44.96704 -0.50813 3274 ft 193 kts 237°
2026-05-06 13:46 44.95913 -0.52273 3072 ft 178 kts 237°
2026-05-06 13:46 44.95173 -0.53639 3075 ft 178 kts 237°
2026-05-06 13:46 44.94360 -0.54992 3045 ft 179 kts 232°
2026-05-06 13:46 44.93501 -0.56279 2926 ft 187 kts 230°
2026-05-06 13:47 44.92576 -0.57617 2693 ft 188 kts 230°
2026-05-06 13:47 44.91670 -0.58916 2434 ft 183 kts 231°
2026-05-06 13:47 44.90791 -0.60176 2151 ft 176 kts 231°
2026-05-06 13:47 44.89992 -0.61320 1920 ft 153 kts 231°
2026-05-06 13:48 44.89253 -0.62383 1755 ft 153 kts 232°
2026-05-06 13:48 44.88495 -0.63473 1533 ft 157 kts 230°
2026-05-06 13:48 44.87726 -0.64577 1325 ft 157 kts 230°
2026-05-06 13:48 44.86974 -0.65652 1093 ft 151 kts 231°
2026-05-06 13:49 44.86244 -0.66701 858 ft 150 kts 231°
2026-05-06 13:49 44.85505 -0.67761 671 ft 153 kts 229°
2026-05-06 13:49 44.84754 -0.68826 455 ft 153 kts 229°
2026-05-06 13:49 44.84013 -0.69891 228 ft 151 kts 231°
2026-05-06 13:50 44.83315 -0.70899 174 ft 126 kts 224°
2026-05-06 13:50 44.82930 -0.71452 171 ft 50 kts 225°
2026-05-06 13:50 44.82718 -0.71745 177 ft 27 kts 225°
2026-05-06 13:50 44.82589 -0.71911 176 ft 23 kts 200°
2026-05-06 13:51 44.82481 -0.71815 175 ft 17 kts 128°
2026-05-06 13:51 44.82470 -0.71664 175 ft 13 kts 58°
2026-05-06 13:51 44.82503 -0.71606 175 ft 6 kts 47°
2026-05-06 13:51 44.82531 -0.71568 175 ft 6 kts 43°
2026-05-06 13:52 44.82559 -0.71529 175 ft 6 kts 45°
2026-05-06 13:52 44.82587 -0.71490 175 ft 6 kts 45°
2026-05-06 13:52 44.82615 -0.71450 175 ft 6 kts 45°
2026-05-06 13:52 44.82653 -0.71396 175 ft 16 kts 46°
2026-05-06 13:53 44.82766 -0.71230 173 ft 29 kts 46°
2026-05-06 13:53 44.82861 -0.71093 175 ft 15 kts 45°
2026-05-06 13:53 44.82934 -0.70990 174 ft 15 kts 45°
2026-05-06 13:53 44.83006 -0.70887 173 ft 15 kts 45°
2026-05-06 13:54 44.83078 -0.70785 173 ft 15 kts 45°
2026-05-06 13:54 44.83150 -0.70682 172 ft 15 kts 45°
2026-05-06 13:54 44.83222 -0.70579 171 ft 15 kts 45°
2026-05-06 13:54 44.83293 -0.70476 170 ft 15 kts 45°
2026-05-06 13:55 44.83359 -0.70367 169 ft 15 kts 76°
2026-05-06 13:55 44.83318 -0.70249 169 ft 6 kts 112°
2026-05-06 13:55 44.83310 -0.70210 169 ft 0 kts 104°